Location: Newark
(43.9494°N, 6.8108°E)
Time: 10:28:27
(UTC+00:00)

A-11 Canister half - Visible Passes

Search period start: 23 October 2019 00:00
Search period end: 02 November 2019 00:00
Orbit: 1527 x 1682 km, 47.3° (Epoch: 22 October)

Date Brightness Start Highest point End Pass type
(mag) Time Alt. Az. Time Alt. Az. Time Alt. Az.
23 Oct 9.1 18:11:44 10° SW 18:20:59 59° SE 18:26:08 28° ENE visible
23 Oct 9.1 20:16:24 10° W 20:24:26 67° WNW 20:24:26 67° WNW visible
23 Oct 11.0 22:22:04 10° WNW 22:22:45 13° WNW 22:22:45 13° WNW visible
24 Oct 9.1 17:50:10 10° SW 17:59:23 56° SE 18:05:46 21° ENE visible
24 Oct 8.9 19:54:45 10° WSW 20:04:04 80° NNW 20:04:04 80° NNW visible
24 Oct 10.8 22:00:25 10° WNW 22:02:22 18° WNW 22:02:22 18° WNW visible
25 Oct 9.2 17:28:37 10° SW 17:37:48 54° SE 17:45:21 16° ENE visible
25 Oct 8.8 19:33:05 10° WSW 19:42:35 81° NNW 19:43:39 72° NE visible
25 Oct 10.5 21:38:46 10° WNW 21:41:57 25° WNW 21:41:57 25° WNW visible
26 Oct 9.3 17:07:03 10° SW 17:16:13 52° SE 17:24:54 11° ENE visible
26 Oct 8.9 19:11:25 10° WSW 19:20:56 82° NNW 19:23:12 58° ENE visible
26 Oct 10.2 21:17:06 10° WNW 21:21:29 32° WNW 21:21:29 32° WNW visible
27 Oct 9.4 16:45:31 10° SSW 16:54:38 50° SE 17:03:31 10° ENE visible
27 Oct 8.9 18:49:45 10° WSW 18:59:18 84° NNW 19:02:43 46° ENE visible
27 Oct 9.8 20:55:27 10° WNW 21:01:00 41° WNW 21:01:00 41° WNW visible
28 Oct 8.9 18:28:05 10° WSW 18:37:40 85° NNW 18:42:12 36° ENE visible
28 Oct 9.5 20:33:47 10° W 20:40:29 51° WNW 20:40:29 51° WNW visible
29 Oct 9.0 18:06:25 10° WSW 18:16:02 87° NNW 18:21:40 28° ENE visible
29 Oct 9.2 20:12:07 10° W 20:19:58 62° NW 20:19:58 62° NW visible
29 Oct 11.0 22:17:28 10° WNW 22:18:15 13° WNW 22:18:15 13° WNW visible
30 Oct 9.0 17:44:46 10° WSW 17:54:24 88° NNW 18:01:08 22° ENE visible
30 Oct 9.0 19:50:27 10° W 19:59:25 72° NNW 19:59:25 72° NNW visible
30 Oct 10.8 21:55:50 10° WNW 21:57:43 18° WNW 21:57:43 18° WNW visible
31 Oct 9.0 17:23:06 10° WSW 17:32:45 90° SW 17:40:35 17° ENE visible
31 Oct 8.9 19:28:46 10° W 19:38:16 73° N 19:38:53 71° NNE visible
31 Oct 10.6 21:34:11 10° WNW 21:37:10 24° WNW 21:37:10 24° WNW visible
01 Nov 9.1 17:01:26 10° WSW 17:11:07 88° SSE 17:20:02 12° ENE visible
01 Nov 8.9 19:07:05 10° W 19:16:36 73° N 19:18:20 61° ENE visible
01 Nov 10.3 21:12:32 10° WNW 21:16:37 30° WNW 21:16:37 30° WNW visible
